Theta_e
322 324 323 321 321 321 326 327 318 325 330 330 327 324 326 328 329 329 331 329 328 327 324 322 322 321 319 315 314 315 319 325 325 325 325 324 325 324 327 325 321 326 326 323 325 325 327 327 327
329 326 324 321 325 326 327 323 320 323 330 330 330 329 328 328 330 331 331 328 326 327 324 323 322 322 320 315 314 314 315 316 320 324 325 321 324 324 322 322 321 325 323 322 324 324 325 327 324
326 328 323 318 323 325 328 322 324 329 331 331 329 329 330 330 330 331 330 327 326 326 324 323 322 322 320 316 314 314 314 314 315 319 322 323 323 324 322 320 321 325 323 323 324 324 325 324 323
325 327 322 318 322 320 322 324 327 328 330 331 329 328 330 329 330 330 327 326 326 325 324 323 323 322 320 316 314 314 314 314 314 313 314 320 323 323 319 321 322 322 320 322 322 322 322 321 321
326 328 323 319 320 319 326 325 329 329 329 330 330 329 330 331 331 328 327 327 326 326 325 324 323 322 318 315 314 315 315 315 315 314 313 314 316 319 319 321 322 320 318 317 320 320 320 320 320
325 328 328 322 319 329 325 327 330 330 330 330 329 330 330 330 330 328 327 325 325 324 326 324 323 321 318 315 315 315 316 316 315 315 314 313 313 314 316 319 322 320 318 315 319 319 318 318 317
327 329 330 327 325 330 328 329 330 330 330 330 330 328 329 331 328 327 326 325 325 325 327 324 323 321 318 316 315 316 316 316 316 316 315 314 313 313 313 314 320 319 318 317 318 316 313 314 316
327 328 331 326 326 331 327 329 331 331 330 331 330 328 330 331 328 327 326 325 325 325 325 324 323 321 318 316 316 317 317 316 315 315 315 314 314 313 313 313 316 318 317 316 315 315 314 314 314
326 329 330 326 321 320 325 329 331 331 331 332 331 330 330 329 328 327 326 326 325 325 324 323 323 321 320 317 318 317 316 317 318 318 317 316 315 314 314 313 313 314 313 314 315 314 314 314 313
328 328 326 315 315 318 319 329 331 331 332 332 331 330 330 329 328 327 326 326 325 325 324 323 323 320 319 319 318 318 319 319 320 319 319 319 318 318 316 315 314 314 313 313 314 314 313 313 312
327 327 321 317 321 319 320 329 329 330 331 332 331 331 330 329 328 327 326 326 325 326 324 323 322 322 320 319 319 320 321 321 320 319 320 319 319 319 318 317 315 314 313 313 313 315 313 312 312
327 324 320 322 321 320 321 327 327 327 328 329 332 331 330 329 329 328 327 327 327 326 324 324 323 322 322 322 322 322 321 321 320 320 320 320 320 319 319 318 317 314 313 313 313 313 314 313 312
324 320 324 324 323 319 323 323 326 326 330 330 332 331 330 329 329 328 327 327 327 327 325 324 323 323 323 323 322 322 322 321 320 320 320 320 319 319 318 318 318 317 314 313 313 313 312 311 311
319 321 323 323 322 320 317 321 323 326 330 330 331 330 330 329 329 329 328 327 328 326 326 326 324 324 323 323 322 322 322 321 321 321 320 320 319 319 318 318 318 318 316 314 313 312 312 311 311
321 324 324 323 321 320 318 324 321 326 331 331 330 330 329 329 329 329 328 328 327 327 326 326 326 325 324 323 323 322 322 321 321 321 321 320 319 319 318 318 317 318 316 315 314 312 312 311 311
322 325 330 323 322 318 320 326 321 328 331 330 330 330 329 329 330 329 329 328 328 328 327 326 326 325 324 324 323 323 322 322 321 322 321 320 319 319 318 317 317 316 315 314 313 312 312 311 310
324 329 329 324 321 320 321 322 317 325 329 329 331 331 331 331 329 329 329 329 328 327 327 327 327 326 325 325 324 324 324 323 322 321 320 319 318 318 317 316 316 314 313 313 311 311 311 311 311
329 329 327 327 321 321 319 319 315 317 325 327 328 328 329 329 329 330 329 329 328 327 327 328 328 327 327 326 325 325 323 322 320 319 317 316 315 315 315 314 314 313 312 312 311 311 310 310 310
325 326 326 323 320 323 324 322 315 314 315 319 324 327 328 328 329 328 328 328 328 328 327 328 328 326 324 323 323 322 321 320 319 317 315 314 313 314 313 312 311 310 310 309 309 309 309 309 310
326 327 324 323 321 322 319 321 315 313 313 315 316 322 326 327 328 328 328 328 328 327 326 327 325 324 323 322 322 320 318 317 316 316 314 312 311 310 309 308 308 308 308 307 307 308 308 307 307
326 327 322 324 321 318 317 321 316 311 311 312 314 317 322 325 327 327 328 328 327 327 326 325 324 325 324 322 320 320 318 318 316 312 309 308 307 306 305 304 304 303 303 303 303 304 304 305 304
329 324 323 323 324 327 319 328 321 313 310 309 312 314 318 320 321 324 327 327 327 327 326 326 325 322 320 320 320 319 318 317 314 310 304 303 302 302 301 301 300 299 299 299 298 299 299 301 303
326 322 323 323 324 323 321 323 323 314 311 310 309 312 314 316 317 320 323 324 325 324 323 320 317 316 314 313 312 310 309 308 305 302 301 300 299 298 297 296 296 296 295 295 295 295 295 295 295
318 318 318 318 321 325 323 323 325 312 315 312 309 311 312 313 314 314 315 316 316 314 312 311 309 308 306 305 304 303 303 302 300 299 298 297 296 295 295 295 295 295 295 295 295 294 294 294 293
318 322 322 324 323 327 314 322 326 316 310 311 311 310 311 312 312 311 312 311 309 308 306 305 304 303 303 302 301 300 299 298 297 296 296 296 296 296 296 296 296 295 295 295 294 294 294 294 293
319 320 324 327 323 319 314 321 323 314 313 311 312 312 311 310 310 309 308 307 306 305 304 303 302 301 300 299 298 298 297 296 296 296 296 296 296 295 295 295 295 295 295 294 294 294 293 293 293
315 319 312 314 308 311 312 309 306 306 307 308 310 310 310 309 309 307 307 306 305 304 302 301 300 298 298 297 296 296 296 295 295 295 295 295 295 295 295 295 295 295 295 295 294 294 294 293 292
313 311 317 315 319 317 313 308 311 308 308 308 307 309 309 309 308 306 305 304 303 302 301 300 298 298 297 296 295 295 295 295 295 295 295 295 295 295 296 296 296 296 295 295 295 294 294 293 292
313 314 313 314 315 319 318 317 304 305 307 308 308 308 308 308 306 305 304 303 302 301 300 299 298 298 296 295 295 295 295 295 295 295 295 295 296 296 296 296 296 296 295 295 295 294 294 293 293
310 313 313 318 317 311 308 307 304 303 304 308 308 307 307 307 305 304 303 303 302 301 299 298 298 298 296 295 295 295 295 295 295 295 295 296 296 296 296 296 295 295 294 294 293 293 292 292 291
Wind_Speed
10 6 7 3 0 2 3 3 2 3 2 2 9 5 7 6 3 3 17 12 10 7 5 2 3 5 5 5 7 7 8 8 6 9 9 8 7 3 7 5 8 11 4 4 7 7 7 5 4
3 3 7 2 2 1 3 2 5 4 9 19 15 10 5 3 5 14 18 13 13 6 5 3 3 3 4 4 6 7 7 7 7 8 6 6 7 8 3 3 8 7 5 7 5 6 6 4 6
3 4 3 3 1 3 3 2 5 8 13 3 5 8 5 5 14 21 16 16 13 7 6 3 2 3 3 4 6 7 8 8 7 7 6 8 5 6 6 7 9 6 5 7 6 3 3 3 3
9 0 0 3 6 5 3 3 6 10 4 3 12 8 7 3 19 15 21 16 12 7 6 3 2 3 3 4 6 7 7 8 8 7 6 7 8 4 7 9 5 3 6 6 3 3 2 4 5
13 2 2 2 3 4 2 8 9 4 5 6 3 4 6 19 9 18 16 13 9 9 6 2 2 3 4 5 6 6 7 8 9 9 9 5 3 5 8 7 6 8 8 6 6 5 5 3 4
6 4 2 3 3 2 1 8 7 4 5 8 8 7 5 11 18 20 14 12 8 7 4 2 2 3 4 5 6 7 7 8 9 9 10 8 6 5 7 6 5 9 11 8 6 5 4 4 4
8 2 3 2 4 3 4 7 6 6 8 3 13 5 7 18 24 20 16 13 9 5 4 2 2 3 4 5 6 6 7 8 9 10 11 11 10 8 6 7 6 8 11 8 4 5 7 6 7
12 1 1 2 5 2 0 2 7 4 3 14 8 6 7 25 22 18 16 12 10 6 5 3 3 4 5 5 6 6 7 9 10 10 11 11 11 11 9 7 7 5 7 9 7 9 10 10 9
12 3 3 1 3 2 3 2 3 5 13 4 4 10 10 29 24 21 17 15 10 8 7 5 3 4 5 5 6 7 8 10 11 12 13 14 14 14 13 11 9 9 12 11 10 9 10 11 12
5 8 4 1 1 3 6 1 7 5 7 3 5 7 25 30 25 21 19 15 13 9 8 5 4 5 5 6 6 7 9 10 11 12 13 13 14 14 14 13 12 12 12 14 11 12 12 14 14
6 12 5 2 4 4 2 2 1 9 2 5 11 19 32 30 27 20 17 15 8 8 8 5 4 4 5 6 7 8 8 10 11 11 12 12 14 15 16 16 14 13 13 14 13 13 14 16 17
6 7 11 3 9 6 4 2 2 1 0 3 8 19 34 30 28 23 20 17 12 9 8 6 5 5 6 7 7 6 7 8 9 11 11 13 14 15 16 16 17 15 13 13 14 14 13 16 18
3 4 10 4 7 12 3 4 1 1 3 4 12 26 30 27 27 21 17 14 13 9 7 7 4 3 4 4 3 4 5 6 6 9 13 14 15 16 17 18 17 17 17 16 15 15 15 18 19
5 10 7 3 5 7 7 3 1 2 0 6 17 27 27 25 25 22 18 15 13 9 7 5 5 4 2 1 1 2 4 7 8 9 12 13 15 16 17 19 20 18 17 16 15 15 16 18 18
10 5 5 3 3 4 8 2 1 1 5 11 18 24 24 24 23 21 17 15 11 10 7 5 3 4 5 5 5 6 7 9 11 11 12 14 15 17 18 19 18 17 16 17 17 17 18 18 19
5 2 6 2 4 3 5 4 1 4 7 9 13 18 21 21 21 19 17 13 12 12 9 8 6 5 6 7 8 9 9 9 12 13 14 15 17 17 16 18 19 17 17 17 18 18 20 20 21
3 4 6 3 2 4 2 2 1 5 6 8 11 15 18 20 20 20 18 16 11 10 11 10 9 8 7 8 10 11 12 11 12 12 14 16 16 17 19 19 18 16 17 17 19 20 23 25 25
9 6 4 7 6 2 3 6 3 6 9 11 12 14 16 18 20 22 21 20 15 11 11 13 12 10 9 10 11 10 10 10 11 11 14 16 15 17 15 16 16 16 17 17 19 22 23 25 27
8 11 5 2 8 5 12 6 6 3 6 11 14 16 17 17 16 17 16 20 19 14 12 13 11 9 10 10 11 10 10 9 10 11 12 12 13 13 15 15 15 16 18 18 18 21 24 27 27
14 12 6 3 7 4 5 11 6 7 6 14 15 19 20 18 16 16 16 17 19 16 15 12 10 10 11 9 9 10 9 8 8 7 9 13 11 13 15 15 16 17 18 18 18 20 24 28 27
10 16 7 6 5 2 2 6 4 4 6 11 14 17 21 19 18 17 18 18 19 18 16 14 14 14 13 11 10 12 10 10 11 8 10 11 12 13 14 15 16 17 18 19 20 22 23 27 29
6 2 10 15 9 4 5 4 7 11 7 7 19 19 19 18 18 17 19 21 20 18 16 14 14 13 11 10 10 10 10 7 10 10 9 9 10 11 13 14 16 17 19 20 22 23 25 27 31
4 5 9 8 10 4 5 3 3 5 10 12 20 24 21 19 18 19 18 17 16 15 14 14 12 10 8 7 6 5 5 4 5 5 6 8 10 12 14 16 18 19 21 22 24 26 26 27 30
9 9 7 4 2 4 7 10 5 6 14 14 12 30 25 23 21 20 18 16 15 14 13 12 9 6 5 4 3 3 2 2 3 5 7 9 10 12 14 16 19 21 22 24 26 27 28 29 30
1 6 2 2 3 4 3 6 10 6 8 8 17 23 26 24 23 22 21 21 20 17 14 10 8 5 4 3 2 2 2 3 5 6 7 9 11 12 15 17 19 22 24 26 28 30 31 32 33
3 1 4 6 4 2 2 7 5 5 10 17 22 30 26 26 26 25 24 22 19 15 12 9 7 6 4 2 2 3 3 3 4 6 8 11 14 17 19 20 23 25 27 29 31 33 34 35 35
3 2 2 4 2 2 4 6 9 3 5 9 18 27 32 31 29 27 23 20 18 15 13 10 8 6 4 3 3 2 1 2 4 7 10 14 17 19 22 24 27 28 30 32 35 37 38 39 39
3 5 3 1 4 4 4 5 5 4 6 6 13 25 33 33 30 27 24 21 18 15 12 11 9 5 4 4 3 1 2 4 6 9 12 16 19 22 25 27 30 32 34 36 38 40 41 42 43
2 2 3 2 1 2 3 5 5 6 8 12 14 23 35 35 32 28 25 20 17 15 13 12 10 6 5 5 4 3 5 7 10 13 16 19 23 27 29 31 34 36 38 39 41 42 42 44 45
3 3 3 3 3 3 1 6 1 7 6 15 16 23 33 33 31 28 24 22 20 17 15 14 12 8 6 7 6 6 8 10 13 16 19 23 27 29 31 33 36 38 40 41 42 43 42 44 46
Wind_Direction
194 144 295 267 346 73 261 243 111 110 97 141 126 143 138 63 123 176 142 143 158 175 161 110 53 37 38 47 51 58 70 72 76 72 46 105 73 75 75 43 60 75 61 55 81 82 68 48 16
130 158 237 260 57 72 263 215 156 145 123 108 96 96 58 85 106 139 144 153 155 169 138 107 70 49 54 59 61 59 58 62 71 82 65 85 78 48 173 13 55 55 33 82 69 85 67 41 19
210 176 245 132 174 205 231 197 145 125 139 107 106 85 97 117 139 147 150 154 154 159 141 113 63 49 62 71 65 59 52 50 60 73 64 87 65 49 34 54 69 60 18 96 79 110 79 12 13
191 137 143 93 214 252 223 168 132 128 124 126 122 75 91 146 145 156 145 156 159 163 152 120 63 49 53 67 71 67 58 55 54 57 74 107 72 63 34 66 46 26 28 64 37 36 328 351 13
147 34 310 262 239 280 281 148 149 120 123 132 131 132 98 151 143 147 150 157 171 178 161 116 55 49 69 76 74 67 59 52 45 43 44 56 46 42 44 70 11 5 16 17 37 47 36 31 354
120 114 230 220 227 291 104 163 149 117 131 133 110 100 141 178 157 145 155 157 159 177 167 133 63 62 80 83 75 67 59 51 45 40 36 34 25 22 27 66 26 3 359 3 33 32 19 2 347
133 127 234 266 89 293 203 162 160 136 128 128 134 95 147 161 156 152 158 159 155 175 184 152 83 70 83 85 78 66 59 53 44 37 31 27 24 18 8 12 41 3 8 23 26 353 340 357 332
166 91 222 257 180 205 236 114 130 108 95 134 142 152 168 169 162 159 161 164 169 184 173 159 100 78 89 91 84 71 60 51 46 42 36 31 25 21 14 3 20 2 348 0 356 340 340 336 335
144 169 223 87 201 281 328 121 114 111 136 142 165 160 174 159 168 169 172 173 178 189 177 160 116 83 95 97 86 74 62 53 45 40 37 32 28 24 19 11 355 340 339 338 341 340 332 329 326
130 191 194 125 14 302 304 279 144 129 138 108 142 168 159 164 173 177 179 177 186 197 180 165 132 93 93 93 85 73 61 54 47 42 41 41 38 33 25 18 6 352 342 342 341 346 346 338 337
203 190 151 147 16 350 321 84 105 139 210 195 181 158 166 171 177 181 184 195 190 187 183 161 139 112 104 94 83 73 64 54 49 46 42 37 33 28 22 17 10 358 350 347 343 336 336 333 335
142 140 137 102 18 41 356 94 66 110 239 216 200 177 171 177 181 182 191 199 196 189 179 173 159 132 113 100 88 74 57 48 42 34 26 20 16 12 8 6 5 0 352 345 347 340 332 325 327
149 150 146 117 36 33 25 44 130 22 333 193 182 176 178 180 183 186 197 203 203 198 185 181 170 152 139 118 90 58 38 24 15 14 9 3 3 359 354 353 352 353 352 346 342 336 337 337 332
106 93 137 97 24 47 26 5 32 348 13 169 180 180 184 186 185 189 198 206 206 191 165 196 214 222 218 222 322 333 348 356 342 348 345 341 342 343 344 343 342 341 342 343 339 333 332 336 334
106 78 92 111 30 34 348 303 349 174 161 168 179 185 191 193 193 198 205 211 202 197 204 219 223 259 260 274 283 306 318 329 321 321 321 326 329 327 330 331 328 327 331 336 335 333 332 335 339
101 82 155 140 182 58 56 258 360 174 179 165 184 194 201 202 205 211 214 214 217 222 227 235 242 267 272 269 279 286 297 311 308 315 316 318 318 317 317 318 319 323 326 326 328 331 330 331 333
191 156 179 138 313 126 153 253 278 190 212 195 198 206 211 211 214 218 223 224 231 245 231 243 249 251 252 262 275 290 292 305 310 314 318 315 318 314 314 314 317 319 321 323 327 327 323 323 323
171 174 187 178 198 89 219 258 223 185 207 230 221 219 216 216 219 219 227 229 229 232 225 237 243 244 253 274 282 285 299 309 311 323 319 313 314 316 317 318 324 327 331 338 330 325 323 319 320
153 181 140 155 166 158 207 239 240 198 202 231 233 228 223 221 217 217 222 217 221 226 236 234 233 252 262 273 278 282 293 298 308 309 312 320 325 335 338 338 334 335 331 330 327 320 317 315 319
161 169 150 70 132 205 183 230 199 195 203 215 225 225 222 217 217 216 211 210 216 224 227 225 245 251 259 261 261 274 291 295 302 307 310 310 316 316 323 324 327 327 322 322 319 314 314 314 321
190 185 171 139 133 68 64 285 199 213 219 212 224 227 222 216 213 209 206 206 211 215 222 227 236 244 256 253 252 262 272 279 285 300 315 319 325 326 325 329 330 328 323 323 320 318 316 313 315
185 132 161 141 145 208 178 269 226 193 207 207 217 217 210 207 207 207 204 206 209 214 217 227 236 247 248 246 250 260 270 276 287 319 327 333 335 332 330 330 329 328 325 324 321 319 315 311 308
229 127 147 162 175 135 184 267 218 188 210 215 215 215 208 205 206 201 197 198 201 204 214 229 232 228 232 246 254 263 275 280 299 317 327 334 330 329 333 334 335 333 330 328 324 322 318 314 309
122 86 58 67 90 249 179 198 205 181 209 219 207 212 206 202 202 199 190 190 194 188 181 180 180 188 200 218 232 233 239 272 306 314 322 334 341 344 342 343 341 339 336 332 329 324 321 318 312
30 122 91 131 188 239 322 219 255 241 234 213 207 200 198 193 188 187 179 171 167 164 166 171 177 190 192 194 198 222 274 305 317 337 351 353 350 350 346 341 338 336 333 329 324 321 320 317 313
142 119 173 186 194 185 10 235 241 254 221 222 216 206 188 179 179 177 172 168 165 168 173 180 184 189 187 198 246 290 311 330 346 350 351 346 345 342 337 333 332 330 327 323 319 316 315 313 312
166 115 20 90 46 61 214 278 281 236 240 184 172 176 177 179 178 177 174 171 174 178 181 184 187 184 192 228 237 236 312 341 336 336 336 334 332 330 329 328 327 325 321 318 315 313 312 310 309
34 138 110 54 151 247 265 279 248 275 240 188 176 174 177 179 179 178 177 178 178 180 183 187 184 186 213 211 206 234 288 302 314 321 322 325 327 325 325 325 322 320 319 318 314 312 311 309 309
126 138 75 106 169 233 300 261 210 270 220 199 187 180 180 180 181 179 180 181 183 187 192 195 195 206 218 210 216 261 288 306 316 318 320 322 324 325 325 323 321 321 319 318 314 312 309 307 305
100 166 155 160 195 224 294 279 282 281 246 170 178 184 188 185 183 183 184 187 190 195 200 202 206 218 231 230 242 272 296 305 309 313 318 322 323 323 323 321 320 319 318 317 316 313 311 308 307